Location: Croissy-Beaubourg
(48.8283°N, 2.6696°E)
Time: 23:26:37
(UTC+00:00)

Cosmos 2082 - Pass Details

Date: 24 August 2022
Orbit: 832 x 856 km, 71.0° (Epoch: 28 September)

Event Time Altitude Azimuth Distance (km) Brightness Sun altitude
Rises 00:10:02 0° 336° (NNW) 3,410 7.7 -29.9°
Reaches altitude 10° 00:13:10 10° 352° (N) 2,476 7.0 -29.8°
Maximum altitude 00:17:19 20° 40° (NE) 1,853 6.0 -29.7°
Drops below altitude 10° 00:21:29 10° 87° (E) 2,480 6.2 -29.6°
Sets 00:24:36 0° 104° (ESE) 3,416 6.8 -29.6°
Enters shadow 00:24:41 - 104° (ESE) 3,442 6.8 -29.6°
